Kilmarnock, Virginia, United States (22482)
Lat: 37.71N, Lon: 76.38W
Wx Zone: VAZ078
Local Info
Past Weather Observations for Tuesday, July 29, 2014

NOTE: This archive is for the closest National Weather Service station to Kilmarnock. Information may differ from the station used for current weather conditions.

Click here for Long-term Archive

Time Weather Temperature Dewpoint Humidity Pressure Winds Precip Visibility
23:55
Mostly Cloudy
68°F / 20°C 55°F / 13°C 64% 30.04 in
(1017 mb)
Calm - 10SM
23:35
Mostly Cloudy
66°F / 19°C 55°F / 13°C 68% 30.04 in
(1017 mb)
Calm - 10SM
23:15
Partly Cloudy
70°F / 21°C 54°F / 12°C 57% 30.04 in
(1017 mb)
Calm - 10SM
22:55
Overcast
70°F / 21°C 54°F / 12°C 57% 30.04 in
(1017 mb)
Calm - 10SM
22:35
Overcast
72°F / 22°C 54°F / 12°C 53% 30.04 in
(1017 mb)
N 3.5 mph
(N 6 kph)
- 10SM
22:15
Overcast
72°F / 22°C 54°F / 12°C 53% 30.04 in
(1017 mb)
Calm - 10SM
21:55
Overcast
72°F / 22°C 55°F / 13°C 57% 30.04 in
(1017 mb)
Calm - 10SM
21:35
Overcast
72°F / 22°C 57°F / 14°C 61% 30.04 in
(1017 mb)
Calm - 10SM
21:15
Overcast
72°F / 22°C 55°F / 13°C 57% 30.04 in
(1017 mb)
Calm - 10SM
20:55
Overcast
72°F / 22°C 55°F / 13°C 57% 30.04 in
(1017 mb)
Calm - 10SM
20:35
Mostly Cloudy
72°F / 22°C 59°F / 15°C 65% 30.01 in
(1016 mb)
Calm - 10SM
20:15
Overcast
72°F / 22°C 59°F / 15°C 65% 30.01 in
(1016 mb)
NE 3.5 mph
(NE 6 kph)
- 10SM
19:55
Overcast
72°F / 22°C 59°F / 15°C 65% 30.01 in
(1016 mb)
NE 3.5 mph
(NE 6 kph)
- 10SM
19:35
Mostly Cloudy
73°F / 23°C 59°F / 15°C 61% 30.01 in
(1016 mb)
NNE 3.5 mph
(NNE 6 kph)
- 10SM
19:15
Clear
72°F / 22°C 61°F / 16°C 69% 29.98 in
(1015 mb)
Calm - 10SM
18:55
Clear
73°F / 23°C 59°F / 15°C 61% 29.98 in
(1015 mb)
Calm - 10SM
18:35
Clear
75°F / 24°C 57°F / 14°C 54% 29.98 in
(1015 mb)
Calm - 10SM
18:15
Partly Cloudy
77°F / 25°C 55°F / 13°C 47% 29.98 in
(1015 mb)
Calm - 10SM
17:55
Partly Cloudy
79°F / 26°C 55°F / 13°C 45% 29.98 in
(1015 mb)
Calm - 10SM
17:35
Clear
79°F / 26°C 54°F / 12°C 42% 29.98 in
(1015 mb)
NW 3.5 mph
(NW 6 kph)
- 10SM
17:15
Clear
81°F / 27°C 52°F / 11°C 37% 29.98 in
(1015 mb)
NW 3.5 mph
(NW 6 kph)
- 10SM
16:55
Partly Cloudy
81°F / 27°C 52°F / 11°C 37% 29.98 in
(1015 mb)
Calm - 10SM
16:35
Mostly Cloudy
81°F / 27°C 48°F / 9°C 32% 29.95 in
(1014 mb)
N 3.5 mph
(N 6 kph)
- 10SM
16:15
Partly Cloudy
82°F / 28°C 48°F / 9°C 30% 29.95 in
(1014 mb)
NW 5.8 mph
(NW 9 kph)
- 10SM
15:55
Partly Cloudy
82°F / 28°C 46°F / 8°C 28% 29.95 in
(1014 mb)
Calm - 10SM
15:35
Partly Cloudy
82°F / 28°C 48°F / 9°C 30% 29.95 in
(1014 mb)
Calm - 10SM
15:15
Mostly Cloudy
82°F / 28°C 48°F / 9°C 30% 29.95 in
(1014 mb)
NE 3.5 mph
(NE 6 kph)
- 10SM
14:55
Mostly Cloudy
82°F / 28°C 48°F / 9°C 30% 29.95 in
(1014 mb)
NNW 4.6 mph
(NNW 7 kph)
- 10SM
14:35
Partly Cloudy
81°F / 27°C 48°F / 9°C 32% 29.95 in
(1014 mb)
W 9.2 mph
(W 15 kph)
- 10SM
14:15
Partly Cloudy
81°F / 27°C 50°F / 10°C 34% 29.95 in
(1014 mb)
NW 3.5 mph
(NW 6 kph)
- 10SM
13:55
Partly Cloudy
81°F / 27°C 48°F / 9°C 32% 29.95 in
(1014 mb)
Calm - 10SM
13:35
Clear
79°F / 26°C 48°F / 9°C 34% 29.95 in
(1014 mb)
SSW 5.8 mph
(SSW 9 kph)
- 10SM
13:15
Clear
79°F / 26°C 48°F / 9°C 34% 29.95 in
(1014 mb)
NW 3.5 mph
(NW 6 kph)
- 10SM
12:55
Clear
79°F / 26°C 46°F / 8°C 32% 29.95 in
(1014 mb)
WNW 8.1 mph
(WNW 13 kph)
- 10SM
12:35
Clear
79°F / 26°C 46°F / 8°C 32% 29.95 in
(1014 mb)
NW 5.8 mph
(NW 9 kph)
- 10SM
12:15
Clear
79°F / 26°C 50°F / 10°C 37% 29.95 in
(1014 mb)
NW 4.6 mph
(NW 7 kph)
- 10SM
11:55
Clear
79°F / 26°C 50°F / 10°C 37% 29.95 in
(1014 mb)
NNW 5.8 mph
(NNW 9 kph)
- 10SM
11:35
Clear
77°F / 25°C 48°F / 9°C 36% 29.98 in
(1015 mb)
NW 4.6 mph
(NW 7 kph)
- 10SM
11:15
Clear
77°F / 25°C 48°F / 9°C 36% 29.98 in
(1015 mb)
NW 8.1 mph
(NW 13 kph)
- 10SM
10:55
Clear
77°F / 25°C 52°F / 11°C 42% 29.98 in
(1015 mb)
NNW 5.8 mph
(NNW 9 kph)
- 10SM
10:35
Clear
77°F / 25°C 52°F / 11°C 42% 29.95 in
(1014 mb)
NW 5.8 mph
(NW 9 kph)
- 10SM
10:15
Clear
75°F / 24°C 52°F / 11°C 44% 29.98 in
(1015 mb)
NW 5.8 mph
(NW 9 kph)
- 10SM
09:55
Clear
75°F / 24°C 55°F / 13°C 50% 29.95 in
(1014 mb)
N 6.9 mph
(N 11 kph)
- 10SM
09:35
Clear
73°F / 23°C 55°F / 13°C 53% 29.95 in
(1014 mb)
NW 8.1 mph
(NW 13 kph)
- 10SM
09:15
Clear
73°F / 23°C 55°F / 13°C 53% 29.95 in
(1014 mb)
NNW 8.1 mph
(NNW 13 kph)
- 10SM
08:55
Clear
73°F / 23°C 55°F / 13°C 53% 29.95 in
(1014 mb)
WNW 6.9 mph
(WNW 11 kph)
- 10SM
08:35
Clear
72°F / 22°C 55°F / 13°C 57% 29.95 in
(1014 mb)
WNW 8.1 mph
(WNW 13 kph)
- 10SM
08:15
Partly Cloudy
72°F / 22°C 55°F / 13°C 57% 29.98 in
(1015 mb)
NW 6.9 mph
(NW 11 kph)
- 10SM
07:55
Mostly Cloudy
70°F / 21°C 55°F / 13°C 60% 29.98 in
(1015 mb)
NW 4.6 mph
(NW 7 kph)
- 10SM
07:35
Overcast
70°F / 21°C 55°F / 13°C 60% 29.98 in
(1015 mb)
NW 6.9 mph
(NW 11 kph)
- 10SM
07:15
Mostly Cloudy
70°F / 21°C 55°F / 13°C 60% 29.95 in
(1014 mb)
NNW 5.8 mph
(NNW 9 kph)
- 10SM
06:55
Mostly Cloudy
68°F / 20°C 55°F / 13°C 64% 29.95 in
(1014 mb)
NW 5.8 mph
(NW 9 kph)
- 10SM
06:35
Partly Cloudy
68°F / 20°C 57°F / 14°C 69% 29.95 in
(1014 mb)
NNW 5.8 mph
(NNW 9 kph)
- 10SM
06:15
Mostly Cloudy
66°F / 19°C 57°F / 14°C 73% 29.95 in
(1014 mb)
NNW 4.6 mph
(NNW 7 kph)
- 10SM
05:55
Partly Cloudy
66°F / 19°C 57°F / 14°C 73% 29.95 in
(1014 mb)
NNW 5.8 mph
(NNW 9 kph)
- 10SM
05:35
Partly Cloudy
66°F / 19°C 57°F / 14°C 73% 29.92 in
(1013 mb)
NW 4.6 mph
(NW 7 kph)
- 10SM
05:15
Partly Cloudy
66°F / 19°C 57°F / 14°C 73% 29.92 in
(1013 mb)
NW 3.5 mph
(NW 6 kph)
- 10SM
04:55
Partly Cloudy
66°F / 19°C 57°F / 14°C 73% 29.92 in
(1013 mb)
NW 3.5 mph
(NW 6 kph)
- 10SM
04:35
Partly Cloudy
66°F / 19°C 59°F / 15°C 78% 29.92 in
(1013 mb)
Calm - 10SM
04:15
Clear
66°F / 19°C 59°F / 15°C 78% 29.92 in
(1013 mb)
Calm - 10SM
03:55
Clear
68°F / 20°C 59°F / 15°C 73% 29.89 in
(1012 mb)
Calm - 10SM
03:35
Clear
68°F / 20°C 59°F / 15°C 73% 29.89 in
(1012 mb)
Calm - 10SM
03:15
Clear
68°F / 20°C 59°F / 15°C 73% 29.89 in
(1012 mb)
Calm - 10SM
02:55
Clear
68°F / 20°C 59°F / 15°C 73% 29.89 in
(1012 mb)
Calm - 10SM
02:35
Clear
70°F / 21°C 59°F / 15°C 69% 29.89 in
(1012 mb)
NW 3.5 mph
(NW 6 kph)
- 10SM
02:15
Clear
70°F / 21°C 59°F / 15°C 69% 29.86 in
(1011 mb)
Calm - 10SM
01:55
Clear
70°F / 21°C 59°F / 15°C 69% 29.86 in
(1011 mb)
NW 3.5 mph
(NW 6 kph)
- 10SM
01:35
Clear
70°F / 21°C 59°F / 15°C 69% 29.86 in
(1011 mb)
NW 3.5 mph
(NW 6 kph)
- 10SM
01:15
Clear
70°F / 21°C 59°F / 15°C 69% 29.86 in
(1011 mb)
NW 3.5 mph
(NW 6 kph)
- 10SM
00:55
Clear
72°F / 22°C 57°F / 14°C 61% 29.86 in
(1011 mb)
NW 4.6 mph
(NW 7 kph)
- 10SM
00:35
Clear
72°F / 22°C 57°F / 14°C 61% 29.86 in
(1011 mb)
NW 3.5 mph
(NW 6 kph)
- 10SM
00:15
Clear
72°F / 22°C 57°F / 14°C 61% 29.86 in
(1011 mb)
NW 3.5 mph
(NW 6 kph)
- 10SM
Time Weather Temperature Dewpoint Humidity Pressure Winds Precip Visibility


Weather for websites

WeatherForYou.com, LLC is not responsible for any damages or problems caused by this service. Current weather conditions are obtained from the closest station including government and personal stations which may have varying degrees of accuracy. Weather forecasts are derived from the NOAA NDFD. Like all things, this site belongs to Jesus Christ... He just trusts me to maintain it. If you have any questions or comments email webmaster@weatherforyou.com

Copyright © 2014, WeatherForYou.com LLC. All rights reserved.